| time (UTC) | temp C | wind direction | speed KPH | gust KPH | rain 1hr cm | rain 24hr cm | rain mn cm | humidity % | barometer mb |
| 20260906005704 | 16 | 0.0 | 0.0 | 0.00 | 0.00 | 0.00 | 62 | 972.5 | |
| 20260906004700 | 16 | 0.0 | 0.0 | 0.00 | 0.00 | 0.00 | 61 | 972.5 | |
| 20260906003655 | 16 | 0.0 | 0.0 | 0.00 | 0.00 | 0.00 | 60 | 972.5 | |
| 20260906002652 | 16 | 0.0 | 0.0 | 0.00 | 0.00 | 0.00 | 60 | 972.4 | |
| 20260906001647 | 16 | 0.0 | 0.0 | 0.00 | 0.00 | 0.00 | 62 | 972.3 | |
| 20260906000641 | 16 | 0.0 | 0.0 | 0.00 | 0.00 | 0.00 | 63 | 972.3 | |
| 20260905235639 | 16 | 0.0 | 0.0 | 0.00 | 0.00 | 0.00 | 63 | 972.4 | |
| 20260905234635 | 15 | 0.0 | 0.0 | 0.00 | 0.00 | 0.00 | 67 | 972.2 | |
| 20260905233631 | 15 | 0.0 | 0.0 | 0.00 | 0.00 | 0.00 | 67 | 972.0 | |
| 20260905232626 | 15 | 0.0 | 0.0 | 0.00 | 0.00 | 0.00 | 67 | 972.0 | |
| 20260905231621 | 15 | 0.0 | 0.0 | 0.00 | 0.00 | 0.00 | 67 | 972.0 | |
| 20260905230618 | 15 | 0.0 | 0.0 | 0.00 | 0.00 | 0.00 | 68 | 972.0 | |
| 20260905225614 | 16 | 0.0 | 0.0 | 0.00 | 0.00 | 0.00 | 66 | 972.0 | |
| 20260905224610 | 16 | 0.0 | 0.0 | 0.00 | 0.00 | 0.00 | 64 | 971.8 | |
| 20260905223605 | 16 | 0.0 | 0.0 | 0.00 | 0.00 | 0.00 | 65 | 971.9 | |
| 20260905222601 | 16 | 0.0 | 0.0 | 0.00 | 0.00 | 0.00 | 66 | 971.9 | |
| 20260905221557 | 16 | 0.0 | 0.0 | 0.00 | 0.00 | 0.00 | 65 | 971.8 | |
| 20260905220553 | 16 | 0.0 | 0.0 | 0.00 | 0.00 | 0.00 | 66 | 971.8 | |
| 20260905215549 | 16 | 0.0 | 0.0 | 0.00 | 0.00 | 0.00 | 66 | 971.7 | |
| 20260905214545 | 16 | 0.0 | 0.0 | 0.00 | 0.00 | 0.00 | 65 | 971.8 | |
| 20260905213540 | 16 | 0.0 | 0.0 | 0.00 | 0.00 | 0.00 | 67 | 971.7 | |
| 20260905212537 | 16 | 0.0 | 0.0 | 0.00 | 0.00 | 0.00 | 67 | 971.6 | |
| 20260905211532 | 17 | 0.0 | 0.0 | 0.00 | 0.00 | 0.00 | 66 | 971.7 | |
| 20260905210529 | 17 | 0.0 | 0.0 | 0.00 | 0.00 | 0.00 | 66 | 971.6 | |
| 20260905205524 | 17 | 0.0 | 0.0 | 0.00 | 0.00 | 0.00 | 65 | 971.5 | |
| 20260905204519 | 17 | 0.0 | 0.0 | 0.00 | 0.00 | 0.00 | 66 | 971.5 | |
| 20260905203515 | 17 | 0.0 | 0.0 | 0.00 | 0.00 | 0.00 | 65 | 971.5 | |
| 20260905202513 | 17 | 0.0 | 0.0 | 0.00 | 0.00 | 0.00 | 65 | 971.4 | |
| 20260905201508 | 18 | 0.0 | 0.0 | 0.00 | 0.00 | 0.00 | 61 | 971.3 | |
| 20260905200504 | 18 | 0.0 | 0.0 | 0.00 | 0.00 | 0.00 | 62 | 971.1 | |
| 20260905195459 | 18 | 0.0 | 0.0 | 0.00 | 0.00 | 0.00 | 63 | 971.1 | |
| 20260905194454 | 18 | 0.0 | 0.0 | 0.00 | 0.00 | 0.00 | 63 | 970.9 | |
| 20260905193451 | 18 | 0.0 | 0.0 | 0.00 | 0.00 | 0.00 | 63 | 970.8 | |
| 20260905192447 | 19 | 0.0 | 0.0 | 0.00 | 0.00 | 0.00 | 64 | 970.8 | |
| 20260905191443 | 20 | 0.0 | 0.0 | 0.00 | 0.00 | 0.00 | 65 | 970.7 | |
| 20260905190437 | 20 | 0.0 | 0.0 | 0.00 | 0.00 | 0.00 | 64 | 970.6 | |
| 20260905185435 | 20 | 0.0 | 0.0 | 0.00 | 0.00 | 0.00 | 64 | 970.6 | |
| 20260905184429 | 20 | 0.0 | 0.0 | 0.00 | 0.00 | 0.00 | 66 | 970.4 | |
| 20260905183426 | 20 | 0.0 | 0.0 | 0.00 | 0.00 | 0.00 | 65 | 970.3 | |
| 20260905181417 | 21 | 0.0 | 0.0 | 0.00 | 0.00 | 0.00 | 65 | 969.9 | |
| 20260905180413 | 21 | 0.0 | 0.0 | 0.00 | 0.00 | 0.00 | 60 | 969.6 | |
| 20260905175408 | 22 | 0.0 | 0.0 | 0.00 | 0.00 | 0.00 | 48 | 969.5 | |
| 20260905174403 | 22 | 0.0 | 0.0 | 0.00 | 0.00 | 0.00 | 46 | 969.3 | |
| 20260905173401 | 22 | 0.0 | 0.0 | 0.00 | 0.00 | 0.00 | 45 | 969.0 | |
| 20260905172356 | 22 | 0.0 | 0.0 | 0.00 | 0.00 | 0.00 | 43 | 969.0 | |
| 20260905171352 | 23 | 0.0 | 0.0 | 0.00 | 0.00 | 0.00 | 43 | 968.9 | |
| 20260905170348 | 23 | 0.0 | 0.0 | 0.00 | 0.00 | 0.00 | 43 | 968.7 | |
| 20260905165344 | 23 | 0.0 | 0.0 | 0.00 | 0.00 | 0.00 | 43 | 968.7 | |
| 20260905164338 | 23 | 0.0 | 0.0 | 0.00 | 0.00 | 0.00 | 42 | 968.5 | |
| 20260905163332 | 23 | 0.0 | 0.0 | 0.00 | 0.00 | 0.00 | 41 | 968.4 | |
| 20260905162329 | 23 | 0.0 | 0.0 | 0.00 | 0.00 | 0.00 | 42 | 968.1 | |
| 20260905161325 | 23 | 0.0 | 0.0 | 0.00 | 0.00 | 0.00 | 42 | 968.2 | |
| 20260905160320 | 23 | 0.0 | 0.0 | 0.00 | 0.00 | 0.00 | 43 | 968.2 | |
| 20260905155315 | 23 | 0.0 | 0.0 | 0.00 | 0.00 | 0.00 | 41 | 968.2 | |
| 20260905154311 | 23 | 0.0 | 0.0 | 0.00 | 0.00 | 0.00 | 43 | 968.1 | |
| 20260905153307 | 23 | 0.0 | 0.0 | 0.00 | 0.00 | 0.00 | 46 | 968.0 | |
| 20260905152306 | 24 | 0.0 | 0.0 | 0.00 | 0.00 | 0.00 | 54 | 968.1 | |
| 20260905151258 | 24 | 0.0 | 0.0 | 0.00 | 0.00 | 0.00 | 54 | 968.0 | |
| 20260905150251 | 24 | 0.0 | 0.0 | 0.00 | 0.00 | 0.00 | 53 | 967.9 | |
| 20260905145249 | 25 | 0.0 | 0.0 | 0.00 | 0.00 | 0.00 | 53 | 968.0 | |
| 20260905144245 | 25 | 0.0 | 0.0 | 0.00 | 0.00 | 0.00 | 51 | 968.1 | |
| 20260905143240 | 25 | 0.0 | 0.0 | 0.00 | 0.00 | 0.00 | 51 | 968.0 | |
| 20260905142235 | 25 | 0.0 | 0.0 | 0.00 | 0.00 | 0.00 | 50 | 968.0 | |
| 20260905141232 | 25 | 0.0 | 0.0 | 0.00 | 0.00 | 0.00 | 51 | 968.1 | |
| 20260905140228 | 25 | 0.0 | 0.0 | 0.00 | 0.00 | 0.00 | 51 | 968.1 | |
| 20260905135223 | 25 | 0.0 | 0.0 | 0.00 | 0.00 | 0.00 | 51 | 968.2 | |
| 20260905134218 | 25 | 0.0 | 0.0 | 0.00 | 0.00 | 0.00 | 50 | 968.3 | |
| 20260905133213 | 25 | 0.0 | 0.0 | 0.00 | 0.00 | 0.00 | 51 | 968.1 | |
| 20260905132209 | 25 | 0.0 | 0.0 | 0.00 | 0.00 | 0.00 | 51 | 968.3 | |
| 20260905131204 | 25 | 0.0 | 0.0 | 0.00 | 0.00 | 0.00 | 50 | 968.2 | |
| 20260905130200 | 25 | 0.0 | 0.0 | 0.00 | 0.00 | 0.00 | 50 | 968.1 | |
| 20260905125154 | 25 | 0.0 | 0.0 | 0.00 | 0.00 | 0.00 | 49 | 968.3 | |
| 20260905124150 | 25 | 0.0 | 0.0 | 0.00 | 0.00 | 0.00 | 48 | 968.2 | |
| 20260905123146 | 25 | 0.0 | 0.0 | 0.00 | 0.00 | 0.00 | 46 | 968.3 | |
| 20260905122142 | 24 | 0.0 | 0.0 | 0.00 | 0.00 | 0.00 | 48 | 968.3 | |
| 20260905121138 | 24 | 0.0 | 0.0 | 0.00 | 0.00 | 0.00 | 47 | 968.4 | |
| 20260905115129 | 24 | 0.0 | 0.0 | 0.00 | 0.00 | 0.00 | 48 | 968.4 | |
| 20260905114125 | 24 | 0.0 | 0.0 | 0.00 | 0.00 | 0.00 | 47 | 968.6 | |
| 20260905113121 | 23 | 0.0 | 0.0 | 0.00 | 0.00 | 0.00 | 47 | 968.6 | |
| 20260905112117 | 23 | 0.0 | 0.0 | 0.00 | 0.00 | 0.00 | 47 | 968.4 | |
| 20260905111113 | 24 | 0.0 | 0.0 | 0.00 | 0.00 | 0.00 | 47 | 968.5 | |
| 20260905110108 | 24 | 0.0 | 0.0 | 0.00 | 0.00 | 0.00 | 47 | 968.4 | |
| 20260905105105 | 24 | 0.0 | 0.0 | 0.00 | 0.00 | 0.00 | 46 | 968.4 | |
| 20260905104100 | 24 | 0.0 | 0.0 | 0.00 | 0.00 | 0.00 | 47 | 968.3 | |
| 20260905103056 | 24 | 0.0 | 0.0 | 0.00 | 0.00 | 0.00 | 48 | 968.4 | |
| 20260905102052 | 23 | 0.0 | 0.0 | 0.00 | 0.00 | 0.00 | 48 | 968.2 | |
| 20260905101047 | 23 | 0.0 | 0.0 | 0.00 | 0.00 | 0.00 | 48 | 968.2 | |
| 20260905100044 | 23 | 0.0 | 0.0 | 0.00 | 0.00 | 0.00 | 48 | 968.3 | |
| 20260905095039 | 23 | 0.0 | 0.0 | 0.00 | 0.00 | 0.00 | 47 | 968.4 | |
| 20260905094035 | 23 | 0.0 | 0.0 | 0.00 | 0.00 | 0.00 | 48 | 968.4 | |
| 20260905092028 | 23 | 0.0 | 0.0 | 0.00 | 0.00 | 0.00 | 48 | 968.2 | |
| 20260905091024 | 23 | 0.0 | 0.0 | 0.00 | 0.00 | 0.00 | 50 | 967.9 | |
| 20260905090019 | 22 | 0.0 | 0.0 | 0.00 | 0.00 | 0.00 | 51 | 967.9 | |
| 20260905085014 | 22 | 0.0 | 0.0 | 0.00 | 0.00 | 0.00 | 51 | 967.9 | |
| 20260905084011 | 22 | 0.0 | 0.0 | 0.00 | 0.00 | 0.00 | 51 | 968.0 | |
| 20260905083006 | 21 | 0.0 | 0.0 | 0.00 | 0.00 | 0.00 | 52 | 967.8 | |
| 20260905082003 | 21 | 0.0 | 0.0 | 0.00 | 0.00 | 0.00 | 54 | 968.0 | |
| 20260905080958 | 20 | 0.0 | 0.0 | 0.00 | 0.00 | 0.00 | 53 | 968.1 | |
| 20260905075954 | 21 | 0.0 | 0.0 | 0.00 | 0.00 | 0.00 | 53 | 968.2 | |
| 20260905074949 | 20 | 0.0 | 0.0 | 0.00 | 0.00 | 0.00 | 52 | 967.9 | |
| 20260905073945 | 20 | 0.0 | 0.0 | 0.00 | 0.00 | 0.00 | 52 | 967.8 | |
| 20260905072940 | 20 | 0.0 | 0.0 | 0.00 | 0.00 | 0.00 | 52 | 967.8 | |
| 20260905071937 | 20 | 0.0 | 0.0 | 0.00 | 0.00 | 0.00 | 54 | 967.5 | |
| 20260905070933 | 20 | 0.0 | 0.0 | 0.00 | 0.00 | 0.00 | 53 | 967.3 | |
| 20260905065928 | 21 | 0.0 | 0.0 | 0.00 | 0.00 | 0.00 | 55 | 967.1 | |
| 20260905064924 | 21 | 0.0 | 0.0 | 0.00 | 0.00 | 0.00 | 58 | 967.1 | |
| 20260905063921 | 20 | 0.0 | 0.0 | 0.00 | 0.00 | 0.00 | 59 | 966.6 | |
| 20260905062917 | 20 | 0.0 | 0.0 | 0.00 | 0.00 | 0.00 | 60 | 966.6 | |
| 20260905061912 | 21 | 0.0 | 0.0 | 0.00 | 0.00 | 0.00 | 59 | 966.9 | |
| 20260905060909 | 21 | 0.0 | 0.0 | 0.00 | 0.00 | 0.00 | 60 | 966.4 | |
| 20260905055904 | 21 | 0.0 | 0.0 | 0.00 | 0.00 | 0.00 | 64 | 966.1 | |
| 20260905054859 | 21 | 0.0 | 0.0 | 0.00 | 0.00 | 0.00 | 67 | 965.8 | |
| 20260905053855 | 21 | 0.0 | 0.0 | 0.00 | 0.00 | 0.00 | 73 | 965.4 | |
| 20260905052852 | 21 | 0.0 | 0.0 | 0.00 | 0.00 | 0.00 | 75 | 965.0 | |
| 20260905051848 | 20 | 0.0 | 0.0 | 0.00 | 0.00 | 0.00 | 76 | 964.8 | |
| 20260905050842 | 19 | 0.0 | 0.0 | 0.00 | 0.00 | 0.00 | 81 | 964.5 | |
| 20260905045839 | 19 | 0.0 | 0.0 | 0.00 | 0.00 | 0.00 | 79 | 964.4 | |
| 20260905044835 | 19 | 0.0 | 0.0 | 0.00 | 0.00 | 0.00 | 78 | 964.2 | |
| 20260905043831 | 19 | 0.0 | 0.0 | 0.00 | 0.00 | 0.00 | 78 | 964.1 | |
| 20260905042826 | 19 | 0.0 | 0.0 | 0.00 | 0.00 | 0.00 | 77 | 964.1 | |
| 20260905041821 | 19 | 0.0 | 0.0 | 0.00 | 0.00 | 0.00 | 77 | 964.0 | |
| 20260905040816 | 18 | 0.0 | 0.0 | 0.00 | 0.00 | 0.00 | 78 | 964.0 | |
| 20260905035812 | 18 | 0.0 | 0.0 | 0.00 | 0.00 | 0.00 | 78 | 963.8 | |
| 20260905034809 | 18 | 0.0 | 0.0 | 0.00 | 0.00 | 0.00 | 77 | 963.7 | |
| 20260905033804 | 18 | 0.0 | 0.0 | 0.00 | 0.00 | 0.00 | 75 | 963.6 | |
| 20260905032800 | 18 | 0.0 | 0.0 | 0.00 | 0.00 | 0.00 | 76 | 963.4 | |
| 20260905031755 | 18 | 0.0 | 0.0 | 0.00 | 0.00 | 0.00 | 77 | 963.3 | |
| 20260905030749 | 18 | 0.0 | 0.0 | 0.00 | 0.00 | 0.00 | 77 | 963.1 | |
| 20260905025746 | 18 | 0.0 | 0.0 | 0.00 | 0.00 | 0.00 | 76 | 963.0 | |
| 20260905023736 | 18 | 0.0 | 0.0 | 0.00 | 0.00 | 0.00 | 77 | 963.1 | |
| 20260905022732 | 19 | 0.0 | 0.0 | 0.00 | 0.00 | 0.00 | 78 | 963.2 | |
| 20260905021728 | 19 | 0.0 | 0.0 | 0.00 | 0.00 | 0.00 | 77 | 963.0 | |
| 20260905020723 | 19 | 0.0 | 0.0 | 0.00 | 0.00 | 0.00 | 77 | 963.0 | |
| 20260905015719 | 19 | 0.0 | 0.0 | 0.00 | 0.00 | 0.00 | 77 | 963.0 | |
| 20260905014715 | 19 | 0.0 | 0.0 | 0.00 | 0.00 | 0.00 | 77 | 963.2 | |
| 20260905013710 | 19 | 0.0 | 0.0 | 0.00 | 0.00 | 0.00 | 77 | 963.4 | |
| 20260905012705 | 19 | 0.0 | 0.0 | 0.00 | 0.00 | 0.00 | 77 | 963.4 | |
| 20260905011700 | 19 | 0.0 | 0.0 | 0.00 | 0.00 | 0.00 | 75 | 963.5 | |
| 20260905010655 | 19 | 0.0 | 0.0 | 0.00 | 0.00 | 0.00 | 76 | 963.4 |